Year,Month,Day,Hour,Minute,Value (Times are PST for temperature in C)
2015,05,30,00,00,13.50
2015,05,30,00,01,13.40
2015,05,30,00,02,13.40
2015,05,30,00,03,13.40
2015,05,30,00,04,13.40
2015,05,30,00,05,13.40
2015,05,30,00,06,13.30
2015,05,30,00,07,13.30
2015,05,30,00,08,13.30
2015,05,30,00,09,13.30
2015,05,30,00,10,13.30
2015,05,30,00,11,13.30
2015,05,30,00,12,13.30
2015,05,30,00,13,13.20
2015,05,30,00,14,13.20
2015,05,30,00,15,13.20
2015,05,30,00,16,13.20
2015,05,30,00,17,13.20
2015,05,30,00,18,13.20
2015,05,30,00,19,13.20
2015,05,30,00,20,13.10
2015,05,30,00,21,13.10
2015,05,30,00,22,13.10
2015,05,30,00,23,13.10
2015,05,30,00,24,13.10
2015,05,30,00,25,13.10
2015,05,30,00,26,13.10
2015,05,30,00,27,13.00
2015,05,30,00,28,13.00
2015,05,30,00,29,13.00
2015,05,30,00,30,13.00
2015,05,30,00,31,12.90
2015,05,30,00,32,12.90
2015,05,30,00,33,12.90
2015,05,30,00,34,12.80
2015,05,30,00,35,12.80
2015,05,30,00,36,12.80
2015,05,30,00,37,12.80
2015,05,30,00,38,12.70
2015,05,30,00,39,12.70
2015,05,30,00,40,12.70
2015,05,30,00,41,12.70
2015,05,30,00,42,12.70
2015,05,30,00,43,12.70
2015,05,30,00,44,12.70
2015,05,30,00,45,12.60
2015,05,30,00,46,12.60
2015,05,30,00,47,12.60
2015,05,30,00,48,12.50
2015,05,30,00,49,12.50
2015,05,30,00,50,12.40
2015,05,30,00,51,12.40
2015,05,30,00,52,12.40
2015,05,30,00,53,12.40
2015,05,30,00,54,12.30
2015,05,30,00,55,12.30
2015,05,30,00,56,12.30
2015,05,30,00,57,12.20
2015,05,30,00,58,12.20
2015,05,30,00,59,12.20
2015,05,30,01,00,12.20
2015,05,30,01,01,12.10
2015,05,30,01,02,12.10
2015,05,30,01,03,12.10
2015,05,30,01,04,12.10
2015,05,30,01,05,12.10
2015,05,30,01,06,12.00
2015,05,30,01,07,12.00
2015,05,30,01,08,11.90
2015,05,30,01,09,11.90
2015,05,30,01,10,11.90
2015,05,30,01,11,11.80
2015,05,30,01,12,11.80
2015,05,30,01,13,11.70
2015,05,30,01,14,11.70
2015,05,30,01,15,11.70
2015,05,30,01,16,11.70
2015,05,30,01,17,11.60
2015,05,30,01,18,11.60
2015,05,30,01,19,11.60
2015,05,30,01,20,11.60
2015,05,30,01,21,11.60
2015,05,30,01,22,11.60
2015,05,30,01,23,11.60
2015,05,30,01,24,11.60
2015,05,30,01,25,11.60
2015,05,30,01,26,11.60
2015,05,30,01,27,11.60
2015,05,30,01,28,11.50
2015,05,30,01,29,11.50
2015,05,30,01,30,11.50
2015,05,30,01,31,11.50
2015,05,30,01,32,11.50
2015,05,30,01,33,11.50
2015,05,30,01,34,11.50
2015,05,30,01,35,11.50
2015,05,30,01,36,11.50
2015,05,30,01,37,11.50
2015,05,30,01,38,11.50
2015,05,30,01,39,11.50
2015,05,30,01,40,11.50
2015,05,30,01,41,11.50
2015,05,30,01,42,11.50
2015,05,30,01,43,11.50
2015,05,30,01,44,11.50
2015,05,30,01,45,11.50
2015,05,30,01,46,11.50
2015,05,30,01,47,11.50
2015,05,30,01,48,11.60
2015,05,30,01,49,11.60
2015,05,30,01,50,11.60
2015,05,30,01,51,11.60
2015,05,30,01,52,11.60
2015,05,30,01,53,11.60
2015,05,30,01,54,11.60
2015,05,30,01,55,11.60
2015,05,30,01,56,11.60
2015,05,30,01,57,11.60
2015,05,30,01,58,11.60
2015,05,30,01,59,11.70
2015,05,30,02,00,11.70
2015,05,30,02,01,11.70
2015,05,30,02,02,11.70
2015,05,30,02,03,11.70
2015,05,30,02,04,11.70
2015,05,30,02,05,11.70
2015,05,30,02,06,11.70
2015,05,30,02,07,11.70
2015,05,30,02,08,11.70
2015,05,30,02,09,11.70
2015,05,30,02,10,11.70
2015,05,30,02,11,11.70
2015,05,30,02,12,11.70
2015,05,30,02,13,11.70
2015,05,30,02,14,11.70
2015,05,30,02,15,11.80
2015,05,30,02,16,11.80
2015,05,30,02,17,11.80
2015,05,30,02,18,11.80
2015,05,30,02,19,11.80
2015,05,30,02,20,11.70
2015,05,30,02,21,11.70
2015,05,30,02,22,11.70
2015,05,30,02,23,11.70
2015,05,30,02,24,11.60
2015,05,30,02,25,11.60
2015,05,30,02,26,11.60
2015,05,30,02,27,11.50
2015,05,30,02,28,11.50
2015,05,30,02,29,11.50
2015,05,30,02,30,11.40
2015,05,30,02,31,11.40
2015,05,30,02,32,11.40
2015,05,30,02,33,11.40
2015,05,30,02,34,11.40
2015,05,30,02,35,11.30
2015,05,30,02,36,11.30
2015,05,30,02,37,11.30
2015,05,30,02,38,11.30
2015,05,30,02,39,11.30
2015,05,30,02,40,11.20
2015,05,30,02,41,11.20
2015,05,30,02,42,11.20
2015,05,30,02,43,11.20
2015,05,30,02,44,11.20
2015,05,30,02,45,11.10
2015,05,30,02,46,11.10
2015,05,30,02,47,11.10
2015,05,30,02,48,11.10
2015,05,30,02,49,11.00
2015,05,30,02,50,11.00
2015,05,30,02,51,11.00
2015,05,30,02,52,10.90
2015,05,30,02,53,10.90
2015,05,30,02,54,10.90
2015,05,30,02,55,10.90
2015,05,30,02,56,10.90
2015,05,30,02,57,10.80
2015,05,30,02,58,10.80
2015,05,30,02,59,10.80
2015,05,30,03,00,10.80
2015,05,30,03,01,10.70
2015,05,30,03,02,10.70
2015,05,30,03,03,10.70
2015,05,30,03,04,10.70
2015,05,30,03,05,10.70
2015,05,30,03,06,10.70
2015,05,30,03,07,10.70
2015,05,30,03,08,10.60
2015,05,30,03,09,10.60
2015,05,30,03,10,10.60
2015,05,30,03,11,10.60
2015,05,30,03,12,10.60
2015,05,30,03,13,10.60
2015,05,30,03,14,10.50
2015,05,30,03,15,10.50
2015,05,30,03,16,10.50
2015,05,30,03,17,10.50
2015,05,30,03,18,10.50
2015,05,30,03,19,10.50
2015,05,30,03,20,10.40
2015,05,30,03,21,10.40
2015,05,30,03,22,10.40
2015,05,30,03,23,10.40
2015,05,30,03,24,10.40
2015,05,30,03,25,10.40
2015,05,30,03,26,10.40
2015,05,30,03,27,10.40
2015,05,30,03,28,10.40
2015,05,30,03,29,10.40
2015,05,30,03,30,10.40
2015,05,30,03,31,10.40
2015,05,30,03,32,10.40
2015,05,30,03,33,10.40
2015,05,30,03,34,10.40
2015,05,30,03,35,10.40
2015,05,30,03,36,10.40
2015,05,30,03,37,10.40
2015,05,30,03,38,10.40
2015,05,30,03,39,10.40
2015,05,30,03,40,10.40
2015,05,30,03,41,10.40
2015,05,30,03,42,10.40
2015,05,30,03,43,10.40
2015,05,30,03,44,10.40
2015,05,30,03,45,10.40
2015,05,30,03,46,10.40
2015,05,30,03,47,10.40
2015,05,30,03,48,10.40
2015,05,30,03,49,10.40
2015,05,30,03,50,10.50
2015,05,30,03,51,10.50
2015,05,30,03,52,10.50
2015,05,30,03,53,10.50
2015,05,30,03,54,10.60
2015,05,30,03,55,10.60
2015,05,30,03,56,10.60
2015,05,30,03,57,10.60
2015,05,30,03,58,10.60
2015,05,30,03,59,10.60
2015,05,30,04,00,10.60
2015,05,30,04,01,10.60
2015,05,30,04,02,10.60
2015,05,30,04,03,10.60
2015,05,30,04,04,10.60
2015,05,30,04,05,10.60
2015,05,30,04,06,10.60
2015,05,30,04,07,10.60
2015,05,30,04,08,10.60
2015,05,30,04,09,10.60
2015,05,30,04,10,10.60
2015,05,30,04,11,10.60
2015,05,30,04,12,10.60
2015,05,30,04,13,10.60
2015,05,30,04,14,10.60
2015,05,30,04,15,10.60
2015,05,30,04,16,10.60
2015,05,30,04,17,10.60
2015,05,30,04,18,10.60
2015,05,30,04,19,10.50
2015,05,30,04,20,10.50
2015,05,30,04,21,10.50
2015,05,30,04,22,10.50
2015,05,30,04,23,10.50
2015,05,30,04,24,10.50
2015,05,30,04,25,10.50
2015,05,30,04,26,10.50
2015,05,30,04,27,10.50
2015,05,30,04,28,10.50
2015,05,30,04,29,10.50
2015,05,30,04,30,10.50
2015,05,30,04,31,10.50
2015,05,30,04,32,10.60
2015,05,30,04,33,10.50
2015,05,30,04,34,10.50
2015,05,30,04,35,10.50
2015,05,30,04,36,10.50
2015,05,30,04,37,10.50
2015,05,30,04,38,10.50
2015,05,30,04,39,10.50
2015,05,30,04,40,10.50
2015,05,30,04,41,10.50
2015,05,30,04,42,10.50
2015,05,30,04,43,10.50
2015,05,30,04,44,10.50
2015,05,30,04,45,10.50
2015,05,30,04,46,10.50
2015,05,30,04,47,10.50
2015,05,30,04,48,10.50
2015,05,30,04,49,10.50
2015,05,30,04,50,10.50
2015,05,30,04,51,10.40
2015,05,30,04,52,10.50
2015,05,30,04,53,10.50
2015,05,30,04,54,10.40
2015,05,30,04,55,10.40
2015,05,30,04,56,10.40
2015,05,30,04,57,10.40
2015,05,30,04,58,10.40
2015,05,30,04,59,10.40
2015,05,30,05,00,10.40
2015,05,30,05,01,10.50
2015,05,30,05,02,10.50
2015,05,30,05,03,10.50
2015,05,30,05,04,10.50
2015,05,30,05,05,10.50
2015,05,30,05,06,10.50
2015,05,30,05,07,10.50
2015,05,30,05,08,10.50
2015,05,30,05,09,10.50
2015,05,30,05,10,10.60
2015,05,30,05,11,10.50
2015,05,30,05,12,10.50
2015,05,30,05,13,10.50
2015,05,30,05,14,10.50
2015,05,30,05,15,10.50
2015,05,30,05,16,10.50
2015,05,30,05,17,10.50
2015,05,30,05,18,10.40
2015,05,30,05,19,10.40
2015,05,30,05,20,10.40
2015,05,30,05,21,10.40
2015,05,30,05,22,10.40
2015,05,30,05,23,10.40
2015,05,30,05,24,10.40
2015,05,30,05,25,10.40
2015,05,30,05,26,10.40
2015,05,30,05,27,10.40
2015,05,30,05,28,10.40
2015,05,30,05,29,10.40
2015,05,30,05,30,10.40
2015,05,30,05,31,10.40
2015,05,30,05,32,10.40
2015,05,30,05,33,10.40
2015,05,30,05,34,10.40
2015,05,30,05,35,10.40
2015,05,30,05,36,10.30
2015,05,30,05,37,10.30
2015,05,30,05,38,10.30
2015,05,30,05,39,10.30
2015,05,30,05,40,10.30
2015,05,30,05,41,10.30
2015,05,30,05,42,10.30
2015,05,30,05,43,10.40
2015,05,30,05,44,10.30
2015,05,30,05,45,10.40
2015,05,30,05,46,10.40
2015,05,30,05,47,10.40
2015,05,30,05,48,10.40
2015,05,30,05,49,10.40
2015,05,30,05,50,10.40
2015,05,30,05,51,10.40
2015,05,30,05,52,10.40
2015,05,30,05,53,10.40
2015,05,30,05,54,10.40
2015,05,30,05,55,10.40
2015,05,30,05,56,10.40
2015,05,30,05,57,10.40
2015,05,30,05,58,10.40
2015,05,30,05,59,10.40
2015,05,30,06,00,10.40
2015,05,30,06,01,10.40
2015,05,30,06,02,10.40
2015,05,30,06,03,10.40
2015,05,30,06,04,10.40
2015,05,30,06,05,10.40
2015,05,30,06,06,10.40
2015,05,30,06,07,10.40
2015,05,30,06,08,10.40
2015,05,30,06,09,10.50
2015,05,30,06,10,10.50
2015,05,30,06,11,10.50
2015,05,30,06,12,10.50
2015,05,30,06,13,10.50
2015,05,30,06,14,10.50
2015,05,30,06,15,10.50
2015,05,30,06,16,10.50
2015,05,30,06,17,10.60
2015,05,30,06,18,10.60
2015,05,30,06,19,10.60
2015,05,30,06,20,10.60
2015,05,30,06,21,10.60
2015,05,30,06,22,10.70
2015,05,30,06,23,10.70
2015,05,30,06,24,10.70
2015,05,30,06,25,10.70
2015,05,30,06,26,10.70
2015,05,30,06,27,10.70
2015,05,30,06,28,10.80
2015,05,30,06,29,10.80
2015,05,30,06,30,10.80
2015,05,30,06,31,10.80
2015,05,30,06,32,10.80
2015,05,30,06,33,10.80
2015,05,30,06,34,10.80
2015,05,30,06,35,10.80
2015,05,30,06,36,10.80
2015,05,30,06,37,10.90
2015,05,30,06,38,10.90
2015,05,30,06,39,10.90
2015,05,30,06,40,10.90
2015,05,30,06,41,10.90
2015,05,30,06,42,10.90
2015,05,30,06,43,10.90
2015,05,30,06,44,10.90
2015,05,30,06,45,10.90
2015,05,30,06,46,10.90
2015,05,30,06,47,11.00
2015,05,30,06,48,11.00
2015,05,30,06,49,11.00
2015,05,30,06,50,11.00
2015,05,30,06,51,11.00
2015,05,30,06,52,11.10
2015,05,30,06,53,11.10
2015,05,30,06,54,11.10
2015,05,30,06,55,11.20
2015,05,30,06,56,11.20
2015,05,30,06,57,11.20
2015,05,30,06,58,11.20
2015,05,30,06,59,11.20
2015,05,30,07,00,11.20
2015,05,30,07,01,11.20
2015,05,30,07,02,11.20
2015,05,30,07,03,11.30
2015,05,30,07,04,11.30
2015,05,30,07,05,11.30
2015,05,30,07,06,11.30
2015,05,30,07,07,11.30
2015,05,30,07,08,11.40
2015,05,30,07,09,11.40
2015,05,30,07,10,11.40
2015,05,30,07,11,11.40
2015,05,30,07,12,11.40
2015,05,30,07,13,11.40
2015,05,30,07,14,11.40
2015,05,30,07,15,11.40
2015,05,30,07,16,11.40
2015,05,30,07,17,11.40
2015,05,30,07,18,11.40
2015,05,30,07,19,11.40
2015,05,30,07,20,11.40
2015,05,30,07,21,11.50
2015,05,30,07,22,11.50
2015,05,30,07,23,11.50
2015,05,30,07,24,11.50
2015,05,30,07,25,11.50
2015,05,30,07,26,11.50
2015,05,30,07,27,11.50
2015,05,30,07,28,11.60
2015,05,30,07,29,11.60
2015,05,30,07,30,11.60
2015,05,30,07,31,11.60
2015,05,30,07,32,11.60
2015,05,30,07,33,11.70
2015,05,30,07,34,11.70
2015,05,30,07,35,11.70
2015,05,30,07,36,11.70
2015,05,30,07,37,11.70
2015,05,30,07,38,11.70
2015,05,30,07,39,11.70
2015,05,30,07,40,11.70
2015,05,30,07,41,11.80
2015,05,30,07,42,11.80
2015,05,30,07,43,11.80
2015,05,30,07,44,11.80
2015,05,30,07,45,11.80
2015,05,30,07,46,11.80
2015,05,30,07,47,11.80
2015,05,30,07,48,11.80
2015,05,30,07,49,11.80
2015,05,30,07,50,11.80
2015,05,30,07,51,11.80
2015,05,30,07,52,11.90
2015,05,30,07,53,11.90
2015,05,30,07,54,11.90
2015,05,30,07,55,11.90
2015,05,30,07,56,11.90
2015,05,30,07,57,11.90
2015,05,30,07,58,12.00
2015,05,30,07,59,12.00
2015,05,30,08,00,12.00
2015,05,30,08,01,12.10
2015,05,30,08,02,12.10
2015,05,30,08,03,12.10
2015,05,30,08,04,12.10
2015,05,30,08,05,12.10
2015,05,30,08,06,12.20
2015,05,30,08,07,12.20
2015,05,30,08,08,12.20
2015,05,30,08,09,12.30
2015,05,30,08,10,12.30
2015,05,30,08,11,12.30
2015,05,30,08,12,12.30
2015,05,30,08,13,12.30
2015,05,30,08,14,12.30
2015,05,30,08,15,12.40
2015,05,30,08,16,12.40
2015,05,30,08,17,12.30
2015,05,30,08,18,12.40
2015,05,30,08,19,12.40
2015,05,30,08,20,12.50
2015,05,30,08,21,12.50
2015,05,30,08,22,12.60
2015,05,30,08,23,12.60
2015,05,30,08,24,12.60
2015,05,30,08,25,12.70
2015,05,30,08,26,12.70
2015,05,30,08,27,12.70
2015,05,30,08,28,12.60
2015,05,30,08,29,12.60
2015,05,30,08,30,12.50
2015,05,30,08,31,12.50
2015,05,30,08,32,12.40
2015,05,30,08,33,12.40
2015,05,30,08,34,12.40
2015,05,30,08,35,12.40
2015,05,30,08,36,12.50
2015,05,30,08,37,12.50
2015,05,30,08,38,12.50
2015,05,30,08,39,12.50
2015,05,30,08,40,12.50
2015,05,30,08,41,12.50
2015,05,30,08,42,12.50
2015,05,30,08,43,12.50
2015,05,30,08,44,12.60
2015,05,30,08,45,12.60
2015,05,30,08,46,12.60
2015,05,30,08,47,12.60
2015,05,30,08,48,12.60
2015,05,30,08,49,12.60
2015,05,30,08,50,12.70
2015,05,30,08,51,12.70
2015,05,30,08,52,12.70
2015,05,30,08,53,12.70
2015,05,30,08,54,12.70
2015,05,30,08,55,12.70
2015,05,30,08,56,12.70
2015,05,30,08,57,12.70
2015,05,30,08,58,12.80
2015,05,30,08,59,12.80
2015,05,30,09,00,12.80
2015,05,30,09,01,12.80
2015,05,30,09,02,12.80
2015,05,30,09,03,12.90
2015,05,30,09,04,12.90
2015,05,30,09,05,12.90
2015,05,30,09,06,13.00
2015,05,30,09,07,13.00
2015,05,30,09,08,12.90
2015,05,30,09,09,12.90
2015,05,30,09,10,12.90
2015,05,30,09,11,13.00
2015,05,30,09,12,13.00
2015,05,30,09,13,13.00
2015,05,30,09,14,13.00
2015,05,30,09,15,13.00
2015,05,30,09,16,13.10
2015,05,30,09,17,13.10
2015,05,30,09,18,13.10
2015,05,30,09,19,13.20
2015,05,30,09,20,13.20
2015,05,30,09,21,13.20
2015,05,30,09,22,13.30
2015,05,30,09,23,13.30
2015,05,30,09,24,13.30
2015,05,30,09,25,13.30
2015,05,30,09,26,13.40
2015,05,30,09,27,13.50
2015,05,30,09,28,13.50
2015,05,30,09,29,13.60
2015,05,30,09,30,13.70
2015,05,30,09,31,13.70
2015,05,30,09,32,13.70
2015,05,30,09,33,13.70
2015,05,30,09,34,13.70
2015,05,30,09,35,13.70
2015,05,30,09,36,13.60
2015,05,30,09,37,13.60
2015,05,30,09,38,13.60
2015,05,30,09,39,13.60
2015,05,30,09,40,13.50
2015,05,30,09,41,13.50
2015,05,30,09,42,13.40
2015,05,30,09,43,13.40
2015,05,30,09,44,13.40
2015,05,30,09,45,13.40
2015,05,30,09,46,13.30
2015,05,30,09,47,13.30
2015,05,30,09,48,13.30
2015,05,30,09,49,13.40
2015,05,30,09,50,13.40
2015,05,30,09,51,13.50
2015,05,30,09,52,13.50
2015,05,30,09,53,13.60
2015,05,30,09,54,13.60
2015,05,30,09,55,13.70
2015,05,30,09,56,13.70
2015,05,30,09,57,13.60
2015,05,30,09,58,13.60
2015,05,30,09,59,13.50
2015,05,30,10,00,13.40
2015,05,30,10,01,13.40
2015,05,30,10,02,13.40
2015,05,30,10,03,13.40
2015,05,30,10,04,13.50
2015,05,30,10,05,13.40
2015,05,30,10,06,13.40
2015,05,30,10,07,13.50
2015,05,30,10,08,13.60
2015,05,30,10,09,13.70
2015,05,30,10,10,13.70
2015,05,30,10,11,13.80
2015,05,30,10,12,13.80
2015,05,30,10,13,13.90
2015,05,30,10,14,13.90
2015,05,30,10,15,13.90
2015,05,30,10,16,14.00
2015,05,30,10,17,14.10
2015,05,30,10,18,14.00
2015,05,30,10,19,13.90
2015,05,30,10,20,13.90
2015,05,30,10,21,13.80
2015,05,30,10,22,13.80
2015,05,30,10,23,13.70
2015,05,30,10,24,13.70
2015,05,30,10,25,13.70
2015,05,30,10,26,13.80
2015,05,30,10,27,13.80
2015,05,30,10,28,13.70
2015,05,30,10,29,13.70
2015,05,30,10,30,13.80
2015,05,30,10,31,13.80
2015,05,30,10,32,13.90
2015,05,30,10,33,14.00
2015,05,30,10,34,14.10
2015,05,30,10,35,14.00
2015,05,30,10,36,14.00
2015,05,30,10,37,14.00
2015,05,30,10,38,14.10
2015,05,30,10,39,14.20
2015,05,30,10,40,14.30
2015,05,30,10,41,14.30
2015,05,30,10,42,14.30
2015,05,30,10,43,14.30
2015,05,30,10,44,14.20
2015,05,30,10,45,14.10
2015,05,30,10,46,14.00
2015,05,30,10,47,13.90
2015,05,30,10,48,13.80
2015,05,30,10,49,13.80
2015,05,30,10,50,13.90
2015,05,30,10,51,13.90
2015,05,30,10,52,13.90
2015,05,30,10,53,13.90
2015,05,30,10,54,13.80
2015,05,30,10,55,13.80
2015,05,30,10,56,13.80
2015,05,30,10,57,13.80
2015,05,30,10,58,13.80
2015,05,30,10,59,13.80
2015,05,30,11,00,13.80
2015,05,30,11,01,13.80
2015,05,30,11,02,13.80
2015,05,30,11,03,13.80
2015,05,30,11,04,13.80
2015,05,30,11,05,13.80
2015,05,30,11,06,13.80
2015,05,30,11,07,13.90
2015,05,30,11,08,14.00
2015,05,30,11,09,14.10
2015,05,30,11,10,14.20
2015,05,30,11,11,14.40
2015,05,30,11,12,14.50
2015,05,30,11,13,14.60
2015,05,30,11,14,14.70
2015,05,30,11,15,14.70
2015,05,30,11,16,14.60
2015,05,30,11,17,14.60
2015,05,30,11,18,14.70
2015,05,30,11,19,14.60
2015,05,30,11,20,14.60
2015,05,30,11,21,14.60
2015,05,30,11,22,14.50
2015,05,30,11,23,14.40
2015,05,30,11,24,14.40
2015,05,30,11,25,14.40
2015,05,30,11,26,14.50
2015,05,30,11,27,14.40
2015,05,30,11,28,14.30
2015,05,30,11,29,14.20
2015,05,30,11,30,14.10
2015,05,30,11,31,14.00
2015,05,30,11,32,13.90
2015,05,30,11,33,14.00
2015,05,30,11,34,14.10
2015,05,30,11,35,14.30
2015,05,30,11,36,14.40
2015,05,30,11,37,14.40
2015,05,30,11,38,14.50
2015,05,30,11,39,14.50
2015,05,30,11,40,14.40
2015,05,30,11,41,14.30
2015,05,30,11,42,14.10
2015,05,30,11,43,14.10
2015,05,30,11,44,14.00
2015,05,30,11,45,14.10
2015,05,30,11,46,14.20
2015,05,30,11,47,14.20
2015,05,30,11,48,14.20
2015,05,30,11,49,14.10
2015,05,30,11,50,14.10
2015,05,30,11,51,14.10
2015,05,30,11,52,14.20
2015,05,30,11,53,14.20
2015,05,30,11,54,14.20
2015,05,30,11,55,14.40
2015,05,30,11,56,14.50
2015,05,30,11,57,14.50
2015,05,30,11,58,14.60
2015,05,30,11,59,14.70
2015,05,30,12,00,14.60
2015,05,30,12,01,14.50
2015,05,30,12,02,14.40
2015,05,30,12,03,14.50
2015,05,30,12,04,14.60
2015,05,30,12,05,14.70
2015,05,30,12,06,14.60
2015,05,30,12,07,14.70
2015,05,30,12,08,14.80
2015,05,30,12,09,14.90
2015,05,30,12,10,14.90
2015,05,30,12,11,14.90
2015,05,30,12,12,14.80
2015,05,30,12,13,14.90
2015,05,30,12,14,14.90
2015,05,30,12,15,15.00
2015,05,30,12,16,15.00
2015,05,30,12,17,14.90
2015,05,30,12,18,14.80
2015,05,30,12,19,14.70
2015,05,30,12,20,14.70
2015,05,30,12,21,14.70
2015,05,30,12,22,14.70
2015,05,30,12,23,14.80
2015,05,30,12,24,14.90
2015,05,30,12,25,15.00
2015,05,30,12,26,15.00
2015,05,30,12,27,15.10
2015,05,30,12,28,15.10
2015,05,30,12,29,15.10
2015,05,30,12,30,15.00
2015,05,30,12,31,14.90
2015,05,30,12,32,14.90
2015,05,30,12,33,14.90
2015,05,30,12,34,15.00
2015,05,30,12,35,15.10
2015,05,30,12,36,15.10
2015,05,30,12,37,15.00
2015,05,30,12,38,14.90
2015,05,30,12,39,14.90
2015,05,30,12,40,14.80
2015,05,30,12,41,14.80
2015,05,30,12,42,14.70
2015,05,30,12,43,14.70
2015,05,30,12,44,14.70
2015,05,30,12,45,14.70
2015,05,30,12,46,14.80
2015,05,30,12,47,14.80
2015,05,30,12,48,14.90
2015,05,30,12,49,14.90
2015,05,30,12,50,14.90
2015,05,30,12,51,15.00
2015,05,30,12,52,15.00
2015,05,30,12,53,14.90
2015,05,30,12,54,14.80
2015,05,30,12,55,14.80
2015,05,30,12,56,14.70
2015,05,30,12,57,14.50
2015,05,30,12,58,14.30
2015,05,30,12,59,14.30
2015,05,30,13,00,14.30
2015,05,30,13,01,14.20
2015,05,30,13,02,14.20
2015,05,30,13,03,14.20
2015,05,30,13,04,14.20
2015,05,30,13,05,14.20
2015,05,30,13,06,14.30
2015,05,30,13,07,14.30
2015,05,30,13,08,14.40
2015,05,30,13,09,14.50
2015,05,30,13,10,14.60
2015,05,30,13,11,14.70
2015,05,30,13,12,14.60
2015,05,30,13,13,14.60
2015,05,30,13,14,14.60
2015,05,30,13,15,14.60
2015,05,30,13,16,14.50
2015,05,30,13,17,14.40
2015,05,30,13,18,14.30
2015,05,30,13,19,14.30
2015,05,30,13,20,14.30
2015,05,30,13,21,14.40
2015,05,30,13,22,14.60
2015,05,30,13,23,14.70
2015,05,30,13,24,14.80
2015,05,30,13,25,15.00
2015,05,30,13,26,15.10
2015,05,30,13,27,15.20
2015,05,30,13,28,15.20
2015,05,30,13,29,15.20
2015,05,30,13,30,15.30
2015,05,30,13,31,15.30
2015,05,30,13,32,15.40
2015,05,30,13,33,15.50
2015,05,30,13,34,15.60
2015,05,30,13,35,15.70
2015,05,30,13,36,15.80
2015,05,30,13,37,15.80
2015,05,30,13,38,15.80
2015,05,30,13,39,15.90
2015,05,30,13,40,15.90
2015,05,30,13,41,15.90
2015,05,30,13,42,15.80
2015,05,30,13,43,15.80
2015,05,30,13,44,15.80
2015,05,30,13,45,15.80
2015,05,30,13,46,15.90
2015,05,30,13,47,16.00
2015,05,30,13,48,16.00
2015,05,30,13,49,16.00
2015,05,30,13,50,16.00
2015,05,30,13,51,16.00
2015,05,30,13,52,15.90
2015,05,30,13,53,15.80
2015,05,30,13,54,15.70
2015,05,30,13,55,15.70
2015,05,30,13,56,15.80
2015,05,30,13,57,15.80
2015,05,30,13,58,15.80
2015,05,30,13,59,15.80
2015,05,30,14,00,15.80
2015,05,30,14,01,15.80
2015,05,30,14,02,15.90
2015,05,30,14,03,16.00
2015,05,30,14,04,16.10
2015,05,30,14,05,16.10
2015,05,30,14,06,16.20
2015,05,30,14,07,16.30
2015,05,30,14,08,16.40
2015,05,30,14,09,16.40
2015,05,30,14,10,16.50
2015,05,30,14,11,16.60
2015,05,30,14,12,16.70
2015,05,30,14,13,16.80
2015,05,30,14,14,16.90
2015,05,30,14,15,17.00
2015,05,30,14,16,17.10
2015,05,30,14,17,17.30
2015,05,30,14,18,17.30
2015,05,30,14,19,17.40
2015,05,30,14,20,17.40
2015,05,30,14,21,17.40
2015,05,30,14,22,17.40
2015,05,30,14,23,17.40
2015,05,30,14,24,17.40
2015,05,30,14,25,17.40
2015,05,30,14,26,17.40
2015,05,30,14,27,17.40
2015,05,30,14,28,17.40
2015,05,30,14,29,17.40
2015,05,30,14,30,17.50
2015,05,30,14,31,17.50
2015,05,30,14,32,17.60
2015,05,30,14,33,17.70
2015,05,30,14,34,17.80
2015,05,30,14,35,17.80
2015,05,30,14,36,17.70
2015,05,30,14,37,17.60
2015,05,30,14,38,17.60
2015,05,30,14,39,17.60
2015,05,30,14,40,17.60
2015,05,30,14,41,17.70
2015,05,30,14,42,17.80
2015,05,30,14,43,17.80
2015,05,30,14,44,17.90
2015,05,30,14,45,17.80
2015,05,30,14,46,17.90
2015,05,30,14,47,17.90
2015,05,30,14,48,17.90
2015,05,30,14,49,17.90
2015,05,30,14,50,18.00
2015,05,30,14,51,18.00
2015,05,30,14,52,18.00
2015,05,30,14,53,18.00
2015,05,30,14,54,18.00
2015,05,30,14,55,18.00
2015,05,30,14,56,18.00
2015,05,30,14,57,18.10
2015,05,30,14,58,18.20
2015,05,30,14,59,18.30
2015,05,30,15,00,18.40
2015,05,30,15,01,18.40
2015,05,30,15,02,18.40
2015,05,30,15,03,18.40
2015,05,30,15,04,18.40
2015,05,30,15,05,18.40
2015,05,30,15,06,18.40
2015,05,30,15,07,18.40
2015,05,30,15,08,18.50
2015,05,30,15,09,18.50
2015,05,30,15,10,18.50
2015,05,30,15,11,18.60
2015,05,30,15,12,18.70
2015,05,30,15,13,18.80
2015,05,30,15,14,19.00
2015,05,30,15,15,19.00
2015,05,30,15,16,19.20
2015,05,30,15,17,19.20
2015,05,30,15,18,19.30
2015,05,30,15,19,19.30
2015,05,30,15,20,19.30
2015,05,30,15,21,19.30
2015,05,30,15,22,19.30
2015,05,30,15,23,19.30
2015,05,30,15,24,19.20
2015,05,30,15,25,19.20
2015,05,30,15,26,19.20
2015,05,30,15,27,19.10
2015,05,30,15,28,19.10
2015,05,30,15,29,19.00
2015,05,30,15,30,18.90
2015,05,30,15,31,18.90
2015,05,30,15,32,18.90
2015,05,30,15,33,18.90
2015,05,30,15,34,18.90
2015,05,30,15,35,19.00
2015,05,30,15,36,19.00
2015,05,30,15,37,19.10
2015,05,30,15,38,19.10
2015,05,30,15,39,19.10
2015,05,30,15,40,19.10
2015,05,30,15,41,19.10
2015,05,30,15,42,19.20
2015,05,30,15,43,19.20
2015,05,30,15,44,19.20
2015,05,30,15,45,19.20
2015,05,30,15,46,19.30
2015,05,30,15,47,19.30
2015,05,30,15,48,19.30
2015,05,30,15,49,19.30
2015,05,30,15,50,19.40
2015,05,30,15,51,19.40
2015,05,30,15,52,19.40
2015,05,30,15,53,19.50
2015,05,30,15,54,19.60
2015,05,30,15,55,19.60
2015,05,30,15,56,19.60
2015,05,30,15,57,19.60
2015,05,30,15,58,19.70
2015,05,30,15,59,19.80
2015,05,30,16,00,19.80
2015,05,30,16,01,19.80
2015,05,30,16,02,19.80
2015,05,30,16,03,19.80
2015,05,30,16,04,19.80
2015,05,30,16,05,19.70
2015,05,30,16,06,19.70
2015,05,30,16,07,19.60
2015,05,30,16,08,19.70
2015,05,30,16,09,19.70
2015,05,30,16,10,19.60
2015,05,30,16,11,19.70
2015,05,30,16,12,19.70
2015,05,30,16,13,19.70
2015,05,30,16,14,19.70
2015,05,30,16,15,19.80
2015,05,30,16,16,19.80
2015,05,30,16,17,19.80
2015,05,30,16,18,19.80
2015,05,30,16,19,19.80
2015,05,30,16,20,19.80
2015,05,30,16,21,19.80
2015,05,30,16,22,19.80
2015,05,30,16,23,19.80
2015,05,30,16,24,19.70
2015,05,30,16,25,19.70
2015,05,30,16,26,19.70
2015,05,30,16,27,19.70
2015,05,30,16,28,19.70
2015,05,30,16,29,19.70
2015,05,30,16,30,19.70
2015,05,30,16,31,19.80
2015,05,30,16,32,19.70
2015,05,30,16,33,19.70
2015,05,30,16,34,19.60
2015,05,30,16,35,19.60
2015,05,30,16,36,19.50
2015,05,30,16,37,19.50
2015,05,30,16,38,19.40
2015,05,30,16,39,19.40
2015,05,30,16,40,19.30
2015,05,30,16,41,19.30
2015,05,30,16,42,19.20
2015,05,30,16,43,19.20
2015,05,30,16,44,19.20
2015,05,30,16,45,19.20
2015,05,30,16,46,19.30
2015,05,30,16,47,19.30
2015,05,30,16,48,19.20
2015,05,30,16,49,19.20
2015,05,30,16,50,19.20
2015,05,30,16,51,19.20
2015,05,30,16,52,19.10
2015,05,30,16,53,19.10
2015,05,30,16,54,19.10
2015,05,30,16,55,19.10
2015,05,30,16,56,19.10
2015,05,30,16,57,19.10
2015,05,30,16,58,19.10
2015,05,30,16,59,19.10
2015,05,30,17,00,19.10
2015,05,30,17,01,19.00
2015,05,30,17,02,19.00
2015,05,30,17,03,19.00
2015,05,30,17,04,19.00
2015,05,30,17,05,19.10
2015,05,30,17,06,19.10
2015,05,30,17,07,19.10
2015,05,30,17,08,19.20
2015,05,30,17,09,19.20
2015,05,30,17,10,19.20
2015,05,30,17,11,19.10
2015,05,30,17,12,19.20
2015,05,30,17,13,19.10
2015,05,30,17,14,19.10
2015,05,30,17,15,19.10
2015,05,30,17,16,19.10
2015,05,30,17,17,19.10
2015,05,30,17,18,19.10
2015,05,30,17,19,19.10